Weather observations for the past three days for
Angoon
Imperial (Metric)
Date Time (akdt) Wind (mph) Vis. (mi.) Weather Sky Cond. Temperature (ºF) Relative Humidity Wind Chill (°F) Heat Index (°F) Pressure Precipitation (in)
Air Dwpt 6 hour altimeter (in) sea level (mb) 1 hr 3 hr 6 hr
Max. Min.
15 02:56 Calm 10.00 Light Rain OVC029 54 54 100% 30 1014.6 0.01
15 01:56 W 3 10.00 Overcast OVC029 54 54 100% 30 1015.0
15 00:56 Calm 10.00 Overcast OVC031 54 54 100% 30.01 1015.1 0.05
14 23:56 Calm 10.00 Overcast OVC031 54 54 100% 30.02 1015.3
14 22:56 Calm 6.00 Light Rain Fog/Mist FEW012 BKN023 OVC036 54 54 100% 30.02 1015.6 0.05
14 21:56 Vrbl 3 8.00 Rain OVC029 55 55 59 55 100% 30.03 1015.7 0.02 0.14
14 20:56 Calm 10.00 Overcast OVC032 55 55 100% 30.02 1015.5
14 19:56 Calm 10.00 Overcast OVC034 57 57 100% 30.03 1015.8
14 18:56 Calm 10.00 Light Rain OVC032 57.9 57.9 100% 30.04 1016.1 0.02 0.12
14 17:56 Calm 10.00 Light Rain OVC032 57.9 57.9 100% 30.04 1016.2 0.04
14 16:56 NE 3 8.00 Light Rain FEW026 OVC032 59 59 100% 30.04 1016.2 0.06
14 15:56 E 3 9.00 Light Rain FEW025 OVC030 59 59 61 57 100% 30.05 1016.4 0.05 0.19
14 14:56 E 7 10.00 Light Rain OVC030 59 57.9 96% 30.05 1016.6 0.09
14 13:56 SE 8 9.00 Light Rain OVC028 59 57.9 96% 30.04 1016.2 0.03
14 12:56 Calm 10.00 Overcast BKN032 OVC048 60.1 59 96% 30.04 1016.1 0.02
14 11:56 E 6 10.00 Light Rain OVC031 60.1 59 96% 30.04 1016.2 0.01
14 10:56 Calm 10.00 Overcast OVC031 59 57.9 96% 30.03 1015.8 0.01
14 09:56 Calm 10.00 Light Rain OVC031 57 57 57 55.9 100% 30.03 1015.8 0.06 0.17
14 08:56 Calm 10.00 Light Rain OVC029 55.9 55.9 100% 30.03 1015.7
14 07:56 SW 3 10.00 Light Rain OVC031 57 57 100% 30.03 1015.7 0.02
14 06:56 Calm 10.00 Rain OVC031 55.9 55.9 100% 30.03 1015.7 0.04 0.09
14 05:56 Calm 10.00 Light Rain OVC031 55.9 55.9 100% 30.03 1015.8 0.03
14 04:56 E 5 10.00 Light Rain OVC031 55.9 55.9 100% 30.03 1015.7 0.02
14 03:56 Calm 10.00 Light Rain OVC029 55.9 55.9 57 55.9 100% 30.03 1015.9 0.02 0.04
14 02:56 Calm 10.00 Light Rain OVC029 55.9 55.9 100% 30.04 1016.0 0.02
14 01:56 Calm 10.00 Light Rain OVC029 55.9 55.9 100% 30.04 1016.2
14 00:56 Calm 10.00 Light Rain OVC031 55.9 55.9 100% 30.05 1016.4
13 23:56 NE 3 10.00 Overcast OVC031 57 55.9 96% 30.05 1016.6
13 22:56 Calm 10.00 Overcast OVC031 55.9 55.9 100% 30.07 1017.1
13 21:56 Calm 10.00 Overcast OVC031 57 55.9 57 55 96% 30.07 1017.3 0.01
13 20:56 E 5 10.00 Overcast OVC033 57 55.9 96% 30.08 1017.4
13 19:56 SE 7 10.00 Overcast OVC031 55.9 55 97% 30.09 1017.8
13 18:56 SE 6 10.00 Light Rain OVC031 55.9 55.9 100% 30.1 1018.2 0.01
13 17:56 E 5 10.00 Overcast OVC033 55.9 55.9 100% 30.11 1018.6
13 16:56 E 3 10.00 Light Rain BKN029 OVC034 55.9 55.9 100% 30.12 1018.9 0.01
13 15:56 E 6 8.00 Rain BKN029 OVC034 55 55 55.9 53.1 100% 30.14 1019.4 0.06 0.22
13 14:56 Calm 10.00 Light Rain BKN029 OVC034 55 55 100% 30.15 1019.8 0.03
13 13:56 E 3 9.00 Light Rain FEW026 OVC031 55 55 100% 30.15 1019.9 0.04
13 12:56 Calm 10.00 Light Rain OVC031 55 55 100% 30.15 1020.0 0.04 0.09
13 11:56 Calm 10.00 Light Rain OVC025 54 54 100% 30.16 1020.1 0.04
13 10:56 Calm 3.00 Light Rain Fog/Mist FEW005 OVC025 53.1 53.1 100% 30.16 1020.1 0.01
13 09:56 Calm 9.00 Light Rain OVC007 53.1 53.1 53.1 52 100% 30.16 1020.2 0.03 0.07
13 08:56 Calm 2.00 Light Rain Fog/Mist BKN009 BKN034 OVC042 53.1 53.1 100% 30.17 1020.5 0.03
13 07:56 Calm 10.00 Light Rain OVC009 53.1 53.1 100% 30.17 1020.7 0.01
13 06:56 Calm 10.00 Light Rain OVC005 53.1 53.1 100% 30.17 1020.7
13 05:56 Calm 10.00 Overcast OVC007 52 52 100% 30.17 1020.7
13 04:56 Calm 9.00 Overcast OVC005 52 52 100% 30.18 1020.8
13 03:56 Calm 10.00 Overcast OVC005 52 52 53.1 52 100% 30.18 1020.9
13 02:56 Calm 10.00 Overcast OVC005 52 52 100% 30.19 1021.1
13 01:56 Calm 10.00 Overcast BKN005 OVC009 52 52 100% 30.19 1021.3
13 00:56 Calm 10.00 Overcast OVC005 53.1 53.1 100% 30.19 1021.2
12 23:56 SW 3 10.00 Overcast BKN005 OVC011 53.1 53.1 100% 30.2 1021.5
12 22:56 Calm 10.00 Mostly Cloudy BKN007 53.1 53.1 100% 30.2 1021.4
12 21:56 Calm 10.00 Overcast SCT005 OVC029 53.1 53.1 57.9 53.1 100% 30.19 1021.3
12 20:56 S 3 10.00 Overcast FEW009 BKN029 OVC037 54 53.1 97% 30.19 1021.3
12 19:56 Vrbl 3 10.00 Overcast OVC030 54 53.1 97% 30.19 1021.4
12 18:56 Vrbl 3 10.00 Overcast FEW025 BKN034 OVC100 55 53.1 93% 30.2 1021.5
12 17:56 Calm 10.00 Overcast SCT031 BKN060 OVC070 55.9 54 93% 30.2 1021.7
12 16:56 Vrbl 3 10.00 Overcast BKN034 OVC049 57 54 90% 30.21 1021.8
12 15:56 Vrbl 5 10.00 Overcast FEW022 BKN032 OVC041 57 55 59 54 93% 30.21 1022.0
12 14:56 Vrbl 5 10.00 Overcast BKN012 OVC034 57.9 55 90% 30.22 1022.1
12 13:56 Vrbl 3 10.00 Overcast BKN027 OVC032 57 55 93% 30.22 1022.3
12 12:56 Calm 10.00 Overcast SCT007 BKN027 OVC031 55.9 55 97% 30.22 1022.2
12 11:56 Calm 10.00 Overcast BKN007 BKN024 OVC030 55 54 96% 30.22 1022.3
12 10:56 Vrbl 3 10.00 Overcast BKN005 BKN023 OVC028 54 54 100% 30.23 1022.4
12 09:56 Vrbl 3 10.00 Overcast OVC005 54 54 54 53.1 100% 30.23 1022.4 0.03
12 08:56 SW 3 3.00 Light Rain Fog/Mist SCT007 BKN012 OVC032 53.1 53.1 100% 30.23 1022.4 0.02
12 07:56 Calm 10.00 Overcast FEW005 BKN025 OVC031 53.1 53.1 100% 30.23 1022.5 0.01
12 06:56 Calm 10.00 Overcast OVC028 53.1 53.1 100% 30.23 1022.5
12 05:56 Calm 10.00 Overcast OVC028 53.1 53.1 100% 30.23 1022.6
12 04:56 Calm 10.00 Overcast OVC030 53.1 53.1 100% 30.23 1022.7
12 03:56 Calm 10.00 Light Rain OVC032 53.1 53.1 53.1 52 100% 30.24 1022.8 0.05
Date Time (akdt) Wind (mph) Vis. (mi.) Weather Sky Cond. Air Dwpt Max. Min. Relative Humidity Wind Chill (°F) Heat Index (°F) altimeter (in) sea level (mb) 1 hr 3 hr 6 hr
6 hour
Temperature (ºF) Pressure Precipitation (in)